www.pogodaiklimat.ru

Погода и климат >> Архив погоды >> Франция >> Бордо


АРХИВ ПОГОДЫ в Бордо

Время (UTC), дата Ветер
(напр.,м/с)
 
Видим.   Явления Облачность Т
(С)
Тd
(С)
f
(%)
Тe
(С)
Тes
(С)
Комфортность P
(гПа)
Po
(гПа)
Тmin
(С)
Tmax
(С)
R
(мм)
R24
(мм)
S
(см)
16 16.01 Ю 1 17 км 10/10 1350 м
[]
+9.5 +7.1 85 +10 +10 тепло 1015.1 1009.3
17 16.01 Ю 1 11 км 9/4 570 м
[]
+8.5 +7.0 90 +8 +8 тепло 1015.1 1009.2
18 16.01 Ю 2 15 км 10/9 600 м
[]
+9.2 +7.6 90 +8 +8 тепло 1015.1 1009.3 -1.0 +9.6
19 16.01 Ю 2 14 км 10/10 570 м
[]
+10.0 +8.1 88 +8 +8 тепло 1015.2 1009.4 0.0
20 16.01 Ю 3 12 км 10/6 540 м
[]
+10.1 +8.4 89 +8 +8 тепло 1015.0 1009.2 0.0
21 16.01 ЮЗ 2 2800 м дождь 10/4 600 м
[]
+9.9 +8.5 91 +8 +8 тепло 1015.2 1009.4 0.0
22 16.01 Ю 2 6000 м 10/8 300 м
[]
+9.4 +8.6 95 +8 +8 тепло 1015.2 1009.4 1
23 16.01 ЮЗ 2 10 км н/о +8.6 +7.8 95 +7 +7 тепло 1015.3 1009.4
00 17.01 Ю 2 8000 м 10/9 180 м
[]
+8.8 +8.5 98 +7 +7 тепло 1015.0 1009.1 1
01 17.01 ЮЗ 3 9000 м слаб. дождь 10/9 210 м
[]
+9.4 +8.8 96 +7 +7 тепло 1014.9 1009.1 0.2
02 17.01 СЗ 2 60 км 10/6 240 м
[]
+9.2 +8.6 96 +8 +8 тепло 1015.2 1009.4 0.6
03 17.01 З 1 45 км 10/9 600 м
[]
+8.8 +8.3 97 +8 +8 тепло 1015.7 1009.8 0.8
04 17.01 З 1 2700 м дымка н/о +7.6 +7.2 97 +6 +6 тепло 1015.7 1009.8
05 17.01 З 2 200 м туман 9/1 420 м
[]
+6.7 +6.4 98 +5 +5 тепло 1016.0 1010.1
06 17.01 З 2 13 км слаб. дождь 8/6 600 м
[]
+6.6 +6.0 96 +5 +5 по сезону 1016.6 1010.7 +6.3 +10.1 2
07 17.01 З 1 45 км н/о +5.8 +4.1 89 +5 +5 тепло 1017.0 1011.1 0.0
08 17.01 З 1 1200 м дымка н/о +5.2 +4.2 93 +4 +4 по сезону 1017.7 1011.7 0.0
09 17.01 ЮЗ 1 35 км н/о +6.7 +5.3 91 +6 +6 по сезону 1018.2 1012.3 0.0
10 17.01 З 2 19 км 9/6 800 м
[]
+9.2 +6.8 85 +8 +9 тепло 1019.0 1013.1 0.0
11 17.01 СЗ 2 40 км 9/4 570 м
[]
+10.7 +6.4 75 +9 +11 тепло 1019.3 1013.5
12 17.01 З 2 55 км 8/8 1230 м
[]
+10.4 +5.4 71 +10 +10 тепло 1019.2 1013.3 0.2
13 17.01 СЗ 1 19 км н/о +9.2 +6.6 84 +10 +10 тепло 1018.8 1012.9 3
14 17.01 СЗ 2 55 км н/о +10.9 +6.4 74 +10 +10 тепло 1018.6 1012.8
15 17.01 СЗ 2 60 км н/о +10.2 +3.9 65 +9 +9 тепло 1018.5 1012.6 3
16 17.01 З 2 55 км н/о +10.1 +4.2 67 +9 +9 тепло 1018.9 1013.0
17 17.01 З 1 60 км н/о +8.0 +3.6 74 +7 +7 тепло 1019.4 1013.5
18 17.01 З 2 60 км н/о +6.6 +3.6 81 +5 +5 по сезону 1019.9 1014.0 +5.1 +11.4
19 17.01 З 1 35 км н/о +5.1 +3.4 89 +4 +4 тепло 1020.6 1014.6
20 17.01 З 1 19 км н/о +5.0 +3.3 89 +4 +4 по сезону 1020.6 1014.6
21 17.01 ЮЗ 1 14 км н/о +3.6 +2.7 94 +2 +2 по сезону 1020.7 1014.7
22 17.01 ЮЗ 1 13 км н/о +2.6 +2.0 96 +2 +2 тепло 1021.1 1015.1
23 17.01 ЮЗ 1 7000 м н/о +2.1 +1.7 97 0 0 по сезону 1021.2 1015.2
00 18.01 ЮЗ 2 11 км 8/8 1140 м
[]
+3.0 +2.9 99 0 0 по сезону 1021.0 1015.0
01 18.01 ЮЗ 2 16 км н/о +3.5 +2.9 96 +1 +1 тепло 1020.6 1014.6
02 18.01 ЮЗ 2 4900 м дымка н/о +3.0 +2.3 95 0 0 по сезону 1020.3 1014.3
03 18.01 СВ 1 20 км 10/8 1140 м
[]
+3.8 +3.2 96 +3 +3 по сезону 1020.1 1014.1 0.0
04 18.01 ЮВ 1 11 км 9/9 1170 м
[]
+3.5 +2.9 96 +2 +2 тепло 1019.7 1013.7
05 18.01 ЮЗ 1 16 км слаб. дождь 10/10 1300 м
[]
+4.0 +3.6 97 +2 +2 по сезону 1019.4 1013.4 0.0
06 18.01 ЮЗ 1 14 км слаб. дождь 10/9 1000 м
[]
+4.4 +3.7 95 +4 +4 по сезону 1019.1 1013.1 +2.0 +6.6 0.2
07 18.01 Ю 2 29 км 10/10 2000 м
[]
+4.4 +3.7 95 +2 +2 по сезону 1018.8 1012.8 0.0
08 18.01 З 1 27 км 10/10 1500 м
[]
+4.4 +3.7 95 +4 +4 по сезону 1019.1 1013.1
09 18.01 ЮВ 1 19 км 10/1 1470 м
[]
+4.8 +4.1 95 +4 +5 по сезону 1019.1 1013.1 0.0
10 18.01 Ю 2 35 км 10/10 1500 м
[]
+5.2 +4.5 95 +3 +3 по сезону 1019.0 1013.0
11 18.01 ЮЗ 2 45 км 8/8
[]
+6.0 +4.8 92 +4 +5 по сезону 1018.8 1012.9
12 18.01 ЮЗ 1 50 км 10/10 1500 м
[]
+7.3 +5.6 89 +7 +7 по сезону 1018.3 1012.4
13 18.01 ЮЗ 2 35 км н/о +8.2 +6.0 86 +7 +7 тепло 1017.5 1011.6
14 18.01 ЮЗ 1 50 км н/о +9.0 +5.9 81 +8 +8 тепло 1017.0 1011.1
15 18.01 Ю 2 50 км н/о +9.0 +6.1 82 +8 +8 по сезону 1016.7 1010.8
16 18.01 ЮЗ 2 35 км 10/10 1020 м
[]
+8.9 +6.9 87 +8 +8 тепло 1016.6 1010.7
17 18.01 Ю 2 45 км 10/1 1020 м
[]
+8.4 +6.4 87 +7 +7 тепло 1016.4 1010.5
18 18.01 ЮЗ 2 50 км 10/3 600 м
[]
+7.8 +6.3 90 +6 +6 по сезону 1016.3 1010.4 +4.3 +9.2
19 18.01 Ю 2 9000 м 10/10 500 м
[]
+7.4 +6.3 93 +6 +6 тепло 1016.3 1010.4 0.4
20 18.01 Ю 2 13 км слаб. дождь 10/10 800 м
[]
+7.2 +6.5 95 +5 +5 тепло 1015.7 1009.8 0.2
21 18.01 Ю 2 17 км 10/10 1350 м
[]
+7.0 +6.3 95 +5 +5 по сезону 1015.6 1009.7 0.6
22 18.01 Ю 2 40 км 10/9 800 м
[]
+6.8 +5.9 94 +5 +5 тепло 1015.6 1009.7 0.0
23 18.01 Ю 2 35 км 10/9 1020 м
[]
+6.6 +5.7 94 +5 +5 тепло 1015.6 1009.7
00 19.01 Ю 2 35 км 10/10 1110 м
[]
+6.6 +5.2 91 +4 +4 по сезону 1015.0 1009.1 0.0
01 19.01 Ю 2 11 км слаб. дождь 10/3 840 м
[]
+6.6 +5.2 91 +4 +4 тепло 1014.4 1008.5 0.0
02 19.01 Ю 2 19 км 10/9 540 м
[]
+6.4 +5.5 94 +4 +4 тепло 1014.1 1008.2 0.4
03 19.01 Ю 2 17 км н/о +5.8 +5.1 95 +4 +4 по сезону 1013.6 1007.7 0.4
04 19.01 Ю 2 8000 м дождь 9/9 400 м
[]
+6.2 +5.5 95 +4 +4 тепло 1012.8 1006.9 0.0
05 19.01 Ю 2 13 км слаб. дождь 10/6 180 м
[]
+6.7 +6.1 96 +4 +4 тепло 1012.5 1006.6 0.2
06 19.01 Ю 2 9000 м 9/9 100 м
[]
+7.0 +6.6 97 +5 +5 по сезону 1012.6 1006.7 +5.8 +7.8 1
07 19.01 Ю 2 10 км 10/6 120 м
[]
+6.8 +6.5 98 +5 +5 тепло 1012.6 1006.7 1
08 19.01 Ю 2 10 км н/о +6.5 +6.2 98 +4 +4 по сезону 1012.6 1006.7
09 19.01 Ю 2 5000 м дождь 9/8 120 м
[]
+6.9 +6.6 98 +4 +5 по сезону 1012.8 1006.9 2
10 19.01 ЮЗ 2 4800 м слаб. дождь 10/9 150 м
[]
+8.4 +7.8 96 +6 +6 тепло 1013.3 1007.4 0.0
11 19.01 Ю 1 26 км 9/1 150 м
[]
+9.0 +7.8 92 +8 +10 тепло 1012.8 1007.0 0.2
12 19.01 ЮЗ 1 50 км 10/10 1230 м
[]
+10.1 +7.9 86 +10 +10 тепло 1011.8 1006.0 0.6
13 19.01 Ю 2 40 км 9/9 660 м
[]
+12.2 +7.7 74 +11 +12 тепло 1010.9 1005.1
14 19.01 ЮЗ 2 50 км 8/6 720 м
[]
+12.0 +7.3 73 +11 +12 тепло 1009.9 1004.1
15 19.01 Ю 2 45 км 9/6 960 м
[]
+10.3 +7.9 85 +9 +10 тепло 1009.6 1003.8 0.4
16 19.01 ЮЗ 1 50 км 9/9 2000 м
[]
+10.2 +7.8 85 +10 +10 тепло 1009.1 1003.3
17 19.01 Ю 1 40 км 10/10 2000 м
[]
+9.6 +7.7 88 +10 +10 тепло 1009.1 1003.3
18 19.01 ЮВ 1 6000 м 10/10 2000 м
[]
+8.3 +7.4 94 +8 +8 тепло 1009.1 1003.3 +6.4 +12.5
19 19.01 В 1 300 м туман 10/3 600 м
[]
+7.8 +7.4 97 +7 +7 тепло 1009.1 1003.3
20 19.01 В 2 6000 м 9/9 2000 м
[]
+7.5 +6.9 96 +6 +6 тепло 1009.0 1003.2
21 19.01 ЮВ 2 8000 м 10/10 2000 м
[]
+6.9 +6.3 96 +5 +5 по сезону 1009.3 1003.4
22 19.01 В 2 5000 м 9/9 2000 м
[]
+6.5 +6.1 97 +4 +4 тепло 1009.6 1003.7
23 19.01 ЮВ 2 4500 м дымка 9/1 1320 м
[]
+6.1 +5.7 97 +4 +4 тепло 1009.8 1003.9
00 20.01 В 1 900 м туман н/о +5.4 +5.0 97 +5 +5 по сезону 1010.1 1004.2
01 20.01 В 1 200 м туман 10/10 2000 м
[]
+5.0 +4.7 98 +3 +3 тепло 1010.0 1004.1
02 20.01 ЮВ 1 300 м туман 10/10 1500 м
[]
+4.9 +4.6 98 +5 +5 тепло 1010.2 1004.3
03 20.01 ЮВ 1 1600 м дымка 9/9 1500 м
[]
+4.9 +4.6 98 +5 +5 по сезону 1010.4 1004.5
04 20.01 ЮВ 1 1800 м дымка 10/10 1470 м
[]
+5.1 +4.8 98 +5 +5 тепло 1010.5 1004.6
05 20.01 В 1 3200 м слаб. дождь 10/10 1500 м
[]
+5.2 +4.9 98 +5 +5 тепло 1010.4 1004.5 0.0
06 20.01 штиль 0 2200 м дымка 10/1 600 м
[]
+5.1 +4.8 98 +4 +4 по сезону 1011.0 1005.1 +4.8 +8.4 0.0
07 20.01 С 1 1900 м дымка 10/6 800 м
[]
+5.0 +4.7 98 +3 +3 тепло 1011.5 1005.6 0.0
08 20.01 СВ 1 2600 м дымка 10/10 270 м
[]
+5.2 +4.9 98 +5 +5 тепло 1012.3 1006.4 0.0
09 20.01 штиль 0 4000 м дымка 10/9 1020 м
[]
+5.7 +5.4 98 +5 +5 по сезону 1012.9 1007.0 0.0
10 20.01 С 1 7000 м 10/1 1000 м
[]
+7.3 +6.9 97 +7 +9 тепло 1013.7 1007.8
11 20.01 С 1 14 км 10/10 1110 м
[]
+8.8 +6.2 84 +8 +8 тепло 1014.6 1008.7
12 20.01 С 1 28 км 10/10 1080 м
[]
+9.2 +6.6 84 +9 +9 по сезону 1014.6 1008.8
13 20.01 С 1 50 км 10/10 840 м
[]
+9.9 +5.9 76 +10 +10 тепло 1014.3 1008.5
14 20.01 С 2 6000 м слаб. дождь 10/10 570 м
[]
+9.7 +6.4 80 +9 +9 тепло 1014.4 1008.6 0.0
15 20.01 СЗ 2 11 км 10/9 400 м
[]
+8.7 +6.3 85 +7 +7 по сезону 1015.0 1009.1 0.2
16 20.01 СЗ 2 18 км слаб. дождь 9/9 930 м
[]
+8.8 +6.9 88 +7 +7 тепло 1015.5 1009.6 0.0
17 20.01 СЗ 1 60 км 10/10 570 м
[]
+8.4 +7.0 91 +8 +8 тепло 1016.0 1010.1 0.0
18 20.01 СЗ 2 60 км 10/10 1000 м
[]
+7.8 +5.8 87 +6 +6 по сезону 1016.6 1010.7 +5.0 +10.8 0.0
19 20.01 СЗ 2 55 км 10/10 1500 м
[]
+7.5 +5.6 88 +6 +6 тепло 1017.4 1011.5
20 20.01 С 2 29 км 10/10 1500 м
[]
+7.4 +5.9 90 +6 +6 тепло 1018.1 1012.2
21 20.01 С 2 30 км 10/6 540 м
[]
+7.2 +5.5 89 +5 +5 по сезону 1018.6 1012.7
22 20.01 С 2 30 км 10/10 1500 м
[]
+7.1 +5.6 90 +5 +5 тепло 1019.2 1013.3
23 20.01 С 2 26 км 10/10 1500 м
[]
+6.9 +5.5 91 +5 +5 тепло 1019.7 1013.8
00 21.01 С 2 18 км 10/10 1440 м
[]
+6.7 +5.6 93 +5 +5 по сезону 1020.0 1014.1
01 21.01 С 1 17 км 10/10 420 м
[]
+6.6 +5.4 92 +5 +5 тепло 1020.3 1014.4
02 21.01 С 2 17 км 10/10 450 м
[]
+6.4 +5.0 91 +4 +4 тепло 1020.5 1014.6
03 21.01 С 2 40 км 10/10 480 м
[]
+5.9 +3.9 87 +3 +3 по сезону 1020.9 1014.9
04 21.01 С 3 30 км 10/10 1320 м
[]
+5.5 +3.3 86 +2 +2 тепло 1021.3 1015.3
05 21.01 С 2 19 км 10/10 300 м
[]
+5.0 +3.2 88 +2 +2 по сезону 1021.7 1015.7
06 21.01 С 2 22 км 10/10 300 м
[]
+4.7 +2.7 87 +2 +2 по сезону 1022.2 1016.2 +4.7 +7.8
07 21.01 С 2 24 км 10/10 330 м
[]
+4.3 +2.3 87 +1 +1 по сезону 1022.5 1016.5
08 21.01 С 2 26 км 10/10 720 м
[]
+4.1 +2.1 87 +2 +2 по сезону 1023.0 1017.0
09 21.01 С 2 19 км 10/10 400 м
[]
+4.1 +2.0 86 +2 +2 по сезону 1023.7 1017.7
10 21.01 С 2 35 км 10/10 570 м
[]
+4.3 +1.7 83 +2 +2 по сезону 1024.5 1018.5
11 21.01 С 1 50 км 10/10 870 м
[]
+4.9 +1.6 79 +5 +5 по сезону 1024.4 1018.4
12 21.01 С 2 55 км 10/10 930 м
[]
+5.4 -0.9 64 +3 +3 прохладно 1024.1 1018.1
13 21.01 С 2 55 км 10/10 1000 м
[]
+5.5 -1.0 63 +3 +3 по сезону 1024.0 1018.0
14 21.01 СЗ 2 55 км 10/10 900 м
[]
+5.5 +0.7 71 +4 +4 по сезону 1023.6 1017.6
15 21.01 С 2 55 км 10/10 930 м
[]
+5.6 +0.6 70 +4 +4 по сезону 1023.4 1017.4
16 21.01 СЗ 2 60 км 10/10 900 м
[]
+5.4 +0.8 72 +4 +4 тепло 1023.3 1017.3
17 21.01 СЗ 1 55 км 10/10 960 м
[]
+4.9 +0.7 74 +4 +4 по сезону 1023.4 1017.4
18 21.01 З 1 55 км 10/10 600 м
[]
+4.6 +0.7 76 +3 +3 по сезону 1023.5 1017.5 +4.0 +5.8
19 21.01 СЗ 1 45 км 10/10 800 м
[]
+4.2 +0.7 78 +4 +4 тепло 1023.6 1017.6
20 21.01 З 1 35 км 9/9 750 м
[]
+3.5 +0.2 79 +2 +2 по сезону 1023.8 1017.8
21 21.01 З 1 45 км 10/10 720 м
[]
+3.9 -0.3 74 +3 +3 по сезону 1023.7 1017.7
22 21.01 ЮВ 1 55 км 10/10 720 м
[]
+3.6 -0.8 73 +4 +4 тепло 1022.6 1016.6
23 21.01 Ю 1 29 км 9/8 800 м
[]
+2.7 -0.6 79 +3 +3 по сезону 1022.8 1016.8
00 22.01 Ю 1 20 км 9/9 960 м
[]
+1.5 -0.9 84 -0 -0 по сезону 1022.1 1016.0
01 22.01 штиль 0 18 км н/о +0.9 -1.0 87 -0 -0 тепло 1021.1 1015.0
02 22.01 Ю 2 30 км н/о +0.4 -1.4 88 -3 -3 по сезону 1020.3 1014.2
03 22.01 Ю 2 40 км 10/6 1140 м
[]
+0.9 -1.2 86 -2 -2 прохладно 1019.1 1013.0
04 22.01 Ю 2 28 км 9/1 1110 м
[]
+1.3 -0.8 86 -2 -2 по сезону 1017.8 1011.8
05 22.01 Ю 2 30 км 9/3 1020 м
[]
+1.8 -0.3 86 -2 -2 по сезону 1016.5 1010.5
06 22.01 Ю 2 25 км 10/10 2000 м
[]
+2.7 +0.4 85 -1 -1 по сезону 1015.6 1009.6 +0.4 +4.6
07 22.01 Ю 3 27 км 10/10 1500 м
[]
+3.3 +1.0 85 -0 -0 по сезону 1014.4 1008.4
08 22.01 Ю 3 10 км слаб. дождь 10/9 1050 м
[]
+3.4 +1.8 89 -0 -0 по сезону 1013.5 1007.5 0.0
09 22.01 Ю 3 7000 м слаб. дождь 10/9 800 м
[]
+3.9 +3.2 95 0 0 прохладно 1012.0 1006.1 0.4
10 22.01 ЮЗ 3 3300 м сильн. дождь 10/10 150 м
[]
+4.7 +4.1 96 +1 +1 по сезону 1011.8 1005.9 1
11 22.01 Ю 2 19 км 10/6 1080 м
[]
+5.7 +5.1 96 +4 +4 по сезону 1010.5 1004.6 0.8
12 22.01 З 2 45 км 10/4 240 м
[]
+6.3 +5.3 93 +4 +6 прохладно 1010.4 1004.5 3
13 22.01 СЗ 2 19 км 10/1 400 м
[]
+7.9 +6.2 89 +6 +7 тепло 1009.7 1003.9
14 22.01 СЗ 3 21 км 10/1 1020 м
[]
+8.9 +4.1 72 +7 +8 тепло 1009.5 1003.7
15 22.01 СЗ 3 45 км 10/3 1470 м
[]
+8.8 +3.8 71 +7 +7 по сезону 1009.2 1003.4
16 22.01 З 2 16 км 10/5 1140 м
[]
+8.2 +4.2 76 +7 +7 тепло 1009.1 1003.3
17 22.01 ЮЗ 2 27 км 10/4 1140 м
[]
+6.8 +4.6 86 +5 +5 по сезону 1008.9 1003.0 0.0
18 22.01 ЮЗ 1 18 км слаб. дождь 10/6 1000 м
[]
+6.2 +4.8 91 +5 +5 по сезону 1008.5 1002.6 +2.7 +9.0 0.4
19 22.01 З 1 55 км 10/3 840 м
[]
+6.5 +4.8 89 +5 +5 тепло 1008.0 1002.1 0.0
20 22.01 ЮВ 1 7000 м дождь 10/10 840 м
[]
+6.1 +5.4 95 +6 +6 тепло 1007.3 1001.4 1
21 22.01 Ю 2 9000 м морось 10/10 630 м
[]
+5.9 +5.5 97 +4 +4 по сезону 1006.0 1000.1 3
22 22.01 Ю 1 11 км 10/4 300 м
[]
+5.8 +5.4 97 +4 +4 тепло 1005.4 999.5 2
23 22.01 штиль 0 7000 м слаб. дождь 10/6 570 м
[]
+5.7 +5.4 98 +5 +5 тепло 1004.8 998.9 0.2
00 23.01 З 2 45 км 10/5 480 м
[]
+6.0 +5.4 96 +4 +4 по сезону 1004.1 998.2 2
01 23.01 ЮЗ 2 16 км 10/4 870 м
[]
+6.0 +5.4 96 +4 +4 тепло 1002.7 996.9 0.0
02 23.01 З 2 19 км 10/6 800 м
[]
+6.5 +5.9 96 +4 +4 тепло 1002.1 996.3 0.0
03 23.01 ЮЗ 2 19 км слаб. дождь 10/1 960 м
[]
+6.9 +6.2 95 +4 +4 по сезону 1000.8 995.0 0.0
04 23.01 ЮЗ 1 8000 м слаб. дождь 10/10 700 м
[]
+6.9 +6.3 96 +6 +6 тепло 999.6 993.8 0.8
05 23.01 штиль 0 4400 м дождь 10/10 600 м
[]
+6.7 +6.1 96 +6 +6 тепло 998.6 992.8 2
06 23.01 З 1 30 км 10/6 300 м
[]
+6.6 +6.2 97 +5 +5 тепло 998.9 993.1 +5.4 +7.0 8
07 23.01 З 2 19 км 10/10 660 м
[]
+6.7 +6.3 97 +5 +5 тепло 999.4 993.6
08 23.01 С 4 11 км слаб. дождь 10/10 420 м
[]
+7.2 +6.0 92 +3 +3 по сезону 1000.8 995.0 2
09 23.01 СЗ 3 55 км 10/6 1170 м
[]
+7.2 +4.8 85 +4 +4 по сезону 1001.4 995.6 2
10 23.01 СЗ 4 55 км 8/1 570 м
[]
+7.4 +4.4 81 +4 +5 по сезону 1002.3 996.5
11 23.01 СЗ 4 45 км 9/6 660 м
[]
+7.5 +3.4 75 +4 +5 по сезону 1003.3 997.5
12 23.01 СЗ 4 55 км 10/3 900 м
[]
+8.1 +2.5 68 +5 +6 по сезону 1003.3 997.5
13 23.01 СЗ 4 50 км 10/6 1110 м
[]
+8.2 +1.6 63 +6 +6 тепло 1004.0 998.2
14 23.01 СЗ 3 50 км 10/3 720 м
[]
+7.7 +1.5 65 +5 +6 тепло 1004.0 998.2 0.0

 

Местоположение метеостанции Бордо (Франция): широта 44.83 долгота -0.68 высота над уровнем моря 61 м.

В архиве по умолчанию представлена погода в Бордо за последнюю неделю. Архивные данные за месяц целиком и за предыдущие месяцы, начиная с января 2011 года, Вы можете получить, выбрав интересующий диапазон дат из раскрывающегося списка и нажав кнопку "Ввод!".


*Определитесь, кто Вы:
робот инопланетянин человек

Внимание! Время в таблицах - всемирное. Для получения местного времени необходимо прибавить поправку, которая равна 1 ч.

Смотрите также архив погоды в соседних городах и на ближайших метеорологических станциях:

Погода в Казо (Франция) (49 км)
Погода в Леж-Кап-Ферре (Франция) (50 км)
Погода в Бискарроссе (Франция) (63 км)
Погода в Бержераке (Франция) (95 км)
Погода в Коньяке (Франция) (98 км)
Погода в Мон-де-Марсане (Франция) (102 км)
Погода в Ажане (Франция) (125 км)
Погода в Пегирё (Франция) (125 км)
Погода в Даксе (Франция) (132 км)
Погода в Шассироне (Франция) (147 км)

Пояснения к столбцам:

Ветер - указаны скорость ветра в м/с - средняя за 10 мин, порывы в срок и между сроками (в фигурных скобках) и направление, откуда дует ветер: С - северный, СВ - северо-восточный, В - восточный, ЮВ - юго-восточный, Ю - южный, ЮЗ - юго-западный, З - западный, СЗ - северо-западный.
Видимость - горизонтальная дальность видимости в метрах или километрах. При видимости от 1 до 10 км при отсутствии осадков обычно наблюдается дымка, при ухудшении видимости до 1 км и менее - туман. В сухую погоду видимость может ухудшаться дымом, пылью или мглою.
Явления - указаны атмосферные явления, наблюдавшиеся в срок или в последний час перед сроком; фигурными скобками обозначены явления, наблюдавшиеся между сроками (за 1-3 часа до срока); квадратными скобками обозначены град или гололедные отложения с указанием их диаметра в мм.
Облачность - указаны через наклонную черту общая и нижняя облачность в баллах и высота нижней границы облаков в метрах; квадратными скобками обозначены формы облаков: Ci - перистые, Cs - перисто-слоистые, Cc - перисто-кучевые, Ac - высококучевые, As - высокослоистые, Sc - слоисто-кучевые, Ns - слоисто-дождевые, Cu - кучевые, Cb - кучево-дождевые. Подробнее классификацию облаков см. в Атласе облаков (PDF).
T - Температура воздуха - температура, измеренная на высоте 2 м над землей.
Td - Температура точки росы - температура, при понижении до которой содержащийся в воздухе водяной пар достигнет насыщения.
f - Относительная влажность воздуха - влажноcть воздуха, измеренная на высоте 2 м над землей.
Te - Эффективная температура - температура, которую ощущает одетый по сезону человек в тени. Характеристика душности погоды. При расчете учитывается влияние влажности воздуха и скорости ветра на теплоощущения человека.
Tes - Эффективная температура на солнце - температура, которую ощущает человек, с поправкой на солнечный нагрев. Характеристика знойности погоды. Зависит от высоты солнца над горизонтом, облачности и скорости ветра. Ночью, в пасмурную погоду, а также при ветре 12 м/с и более поправка равна нулю.
P - Атмосферное давление - приведенное к уровню моря атмосферное давление.
Po - Атмосферное давление - измеренное на уровне метеостанции атмосферное давление.
Tmin - Минимальная температура - минимум температуры воздуха на высоте 2 м над землей.
Tmax - Максимальная температура - максимум температуры воздуха на высоте 2 м над землей.
R - Количество осадков - Количество выпавших осадков за период времени, мм. При наведении курсора мыши на число - период времени, за который выпало указанное количество осадков.
R24 - Количество осадков - Количество выпавших осадков за 24 часа, мм.
S - Снежный покров - Высота снежного покрова, см. При наведении курсора мыши на число - состояние снежного покрова и степень покрытия местности в баллах.